SCP
0 0 0 0 0 0 0 0 -0 -0 0 0 0 0 -0 -0 0 0 0 -0 -0 -0 0 0 0 0 0 0 0 0 -0 -0
0 0 0 0 0 0 0 0 0 0 0 0 0 0 0 -0 -0 0 0 0 -0 -0 -0 0 0 0 0 0 0 0 -0 -0
0 0 0 0 0 0 0 0 0 0 0 0 -0 -0 -0 -0 -0 -0 -0 -0 -0 -0 0 0 0 0 0 0 0 0 0 -0
0 -0 0 0 0 0 0 0 0 0 0 0 0 -0 -0 -0 0 0 0 -0 -0 -0 0 0 0 0 0 0 0 0 -0 -0
0 0 0 0 0 0 0 0 0 0 0 0 0 0 0 0 0 0 0 -0 -0 0 -0 0 0 0 0 0 0 0 -0 -0
0 0 0 0 0 0 0 0 0 0 0 0 0 0 0 0 -0 0 0 -0 -0 0 0 0 0 0 0 0 0 0 0 -0
0 0 0 0 0 0 0 0 0 0 0 0 0 0 0 0 0 0 0 0 0 -0 0 0 0 0 1 0 0 0 0 -0
0 0 0 0 0 0 0 0 0 0 0 0 0 0 0 1 0 1 0 0 0 0 1 0 0 0 1 1 0 0 0 -0
0 0 0 0 0 0 0 0 0 0 0 0 0 0 1 0 1 0 0 0 0 0 0 0 0 0 1 1 1 0 0 0
0 0 0 0 0 0 0 0 0 0 0 0 0 0 0 0 0 0 0 0 0 0 1 0 0 0 1 1 1 0 0 0
0 0 0 0 0 0 0 0 0 0 0 0 0 0 0 0 0 0 0 0 0 0 0 0 0 1 1 1 1 1 0 0
0 -0 -0 0 0 0 0 0 0 0 0 0 0 0 0 0 0 0 0 0 0 0 0 0 0 1 1 1 0 0 0 0
0 -0 0 0 0 0 0 0 0 0 0 0 0 0 0 0 0 0 0 0 0 0 0 0 0 0 0 1 0 0 0 1
0 -0 -0 0 0 0 0 0 0 0 1 2 1 0 0 0 0 0 0 0 0 0 0 0 0 0 0 0 0 1 1 1
0 0 0 0 0 0 0 0 0 0 1 2 2 5 1 0 0 0 0 0 0 0 0 0 0 0 0 0 0 1 1 0
0 0 0 0 0 0 0 0 0 0 0 1 1 1 4 6 2 0 0 0 0 -0 0 0 1 0 -0 0 0 1 1 0
0 0 0 0 0 0 0 0 0 0 0 0 0 1 2 4 3 4 3 1 1 1 0 0 1 1 1 1 1 1 0 1
0 0 0 0 0 0 0 0 -0 -0 0 0 0 0 1 2 3 3 3 5 6 4 1 0 0 0 1 1 2 1 1 1
0 0 0 0 0 0 0 0 -0 -0 0 0 0 0 0 1 1 1 3 4 5 4 1 1 1 2 2 1 1 1 1 1
Wind_Speed_500mb
25 17 18 23 11 22 13 10 3 7 6 10 15 15 43 55 51 73 79 93 100 103 108 106 99 95 89 81 76 67 69 70
37 12 24 19 13 3 3 13 10 9 6 10 13 22 30 32 49 60 75 73 90 102 110 111 106 101 91 83 81 71 64 72
10 14 18 3 12 4 7 13 15 9 12 16 36 41 43 40 58 71 87 94 91 101 109 111 108 107 99 89 85 79 68 68
39 9 10 11 11 15 16 18 6 10 16 10 24 33 49 54 67 65 90 102 99 101 104 102 106 101 107 99 91 84 73 68
5 10 2 11 12 12 4 5 26 10 12 7 7 14 35 43 12 37 58 89 95 92 105 104 109 105 107 109 98 88 80 73
11 4 4 12 18 8 14 11 13 14 12 11 14 18 21 36 34 37 69 96 95 96 100 108 111 105 106 109 103 95 85 78
18 17 12 18 19 13 3 19 18 22 20 19 23 6 8 14 15 46 61 77 93 99 99 107 108 103 108 105 102 97 88 83
9 9 12 11 17 12 11 8 11 12 11 14 29 33 24 34 47 34 38 65 72 87 97 104 107 107 106 106 101 96 90 87
12 19 12 4 3 8 10 10 17 16 17 15 12 18 33 48 50 50 59 62 78 94 103 104 106 103 108 106 98 95 92 87
9 12 5 11 19 9 9 18 29 24 15 31 37 55 55 50 39 38 48 66 80 91 98 103 100 100 97 95 95 87 90 88
4 5 13 7 14 9 6 8 30 32 36 24 38 25 17 38 45 43 53 63 82 92 104 101 99 96 97 95 97 88 91 88
7 6 4 7 32 53 13 3 32 35 34 6 34 11 12 47 25 32 27 47 69 89 103 96 95 93 96 94 97 97 91 88
5 6 14 20 37 33 14 9 37 39 50 32 6 11 55 50 46 31 22 37 62 84 91 93 91 91 95 94 99 89 84 84
5 5 8 48 12 12 11 21 26 42 57 56 52 27 15 45 38 43 31 17 36 67 91 87 90 88 91 99 93 89 87 87
11 8 5 36 25 40 38 14 34 46 51 53 56 54 30 18 25 33 34 28 13 52 82 89 87 86 86 89 94 92 91 89
14 13 31 36 67 77 64 21 31 40 43 47 51 51 50 35 27 26 27 34 31 8 54 78 84 88 85 81 85 89 86 85
10 18 39 43 74 72 71 27 33 36 40 42 46 46 45 43 31 23 25 27 19 26 26 35 69 78 84 89 85 83 82 83
6 31 25 39 65 59 63 30 36 35 38 40 41 43 40 39 38 35 20 16 6 8 15 15 11 28 64 81 88 89 85 84
13 51 59 33 40 57 60 18 34 37 37 41 37 38 38 38 33 29 28 11 16 12 21 25 17 19 15 32 53 78 90 87
Wind_Direction_500mb
221 216 168 242 174 201 198 219 76 220 307 329 355 182 186 194 196 200 197 197 196 198 200 203 207 209 211 213 217 217 215 214
238 203 243 199 199 188 354 223 225 260 220 211 203 200 190 182 209 211 202 198 199 199 204 205 208 212 210 214 217 217 216 215
183 191 214 222 233 144 152 161 208 186 258 212 200 199 189 194 207 198 196 198 200 200 206 207 206 213 212 213 217 218 219 217
236 200 202 173 227 183 218 255 225 187 245 250 207 204 211 194 187 199 209 200 197 198 203 204 204 206 214 216 216 220 221 220
357 330 166 211 216 194 145 124 231 195 263 284 140 169 197 189 203 218 211 192 190 191 198 203 204 205 213 218 218 220 221 221
211 228 289 289 324 293 209 191 202 199 205 221 233 202 203 200 225 197 189 182 188 188 194 203 207 208 209 218 220 221 221 222
284 251 259 262 269 300 277 236 185 221 184 213 215 107 153 134 132 175 176 179 182 188 193 203 206 207 209 218 220 221 221 223
289 309 237 256 281 296 288 283 235 198 219 197 147 140 134 111 111 122 157 178 182 188 190 201 206 206 207 217 219 219 222 226
291 322 306 353 270 299 294 3 271 213 206 157 164 177 153 139 148 163 174 181 186 194 197 202 206 210 211 216 219 220 223 226
275 335 202 250 313 279 288 22 9 358 288 178 182 185 175 178 196 173 178 187 197 200 200 207 211 213 216 216 220 222 223 225
2 277 281 342 10 341 322 356 3 348 340 230 135 139 219 188 188 181 187 201 208 211 213 210 213 216 216 217 220 221 223 225
0 333 275 238 334 320 291 19 357 353 339 229 132 148 232 188 198 189 221 213 213 215 213 213 215 216 216 218 220 222 226 228
218 260 287 319 318 322 67 295 330 350 353 13 357 278 207 191 176 151 146 191 206 211 215 215 217 218 217 221 223 228 229 232
146 238 321 341 10 63 280 332 352 11 11 4 12 19 170 149 136 129 121 144 206 213 217 217 219 219 221 226 229 228 230 233
187 214 262 0 15 2 359 360 21 18 16 16 20 19 57 179 121 101 100 81 181 212 217 219 222 222 226 234 229 228 231 234
354 12 334 358 5 6 4 26 16 16 13 12 10 19 42 67 73 70 77 99 79 119 219 225 227 227 236 235 231 230 232 235
302 349 352 349 356 351 353 19 18 9 15 15 13 13 21 32 40 54 73 92 98 64 42 238 238 239 241 237 238 238 238 237
313 325 325 303 332 345 355 19 21 18 3 15 20 15 4 19 26 31 24 50 149 31 357 20 356 255 245 244 244 243 243 242
294 315 309 314 338 359 357 25 32 33 22 3 14 20 10 0 14 13 22 22 33 21 317 313 280 264 272 243 247 251 250 252
Wind_Speed_850mb
25 17 18 23 11 22 13 10 3 7 6 10 15 15 43 55 51 73 79 93 100 103 108 106 99 95 89 81 76 67 69 70
37 12 24 19 13 3 3 13 10 9 6 10 13 22 30 32 49 60 75 73 90 102 110 111 106 101 91 83 81 71 64 72
10 14 18 3 12 4 7 13 15 9 12 16 36 41 43 40 58 71 87 94 91 101 109 111 108 107 99 89 85 79 68 68
39 9 10 11 11 15 16 18 6 10 16 10 24 33 49 54 67 65 90 102 99 101 104 102 106 101 107 99 91 84 73 68
5 10 2 11 12 12 4 5 26 10 12 7 7 14 35 43 12 37 58 89 95 92 105 104 109 105 107 109 98 88 80 73
11 4 4 12 18 8 14 11 13 14 12 11 14 18 21 36 34 37 69 96 95 96 100 108 111 105 106 109 103 95 85 78
18 17 12 18 19 13 3 19 18 22 20 19 23 6 8 14 15 46 61 77 93 99 99 107 108 103 108 105 102 97 88 83
9 9 12 11 17 12 11 8 11 12 11 14 29 33 24 34 47 34 38 65 72 87 97 104 107 107 106 106 101 96 90 87
12 19 12 4 3 8 10 10 17 16 17 15 12 18 33 48 50 50 59 62 78 94 103 104 106 103 108 106 98 95 92 87
9 12 5 11 19 9 9 18 29 24 15 31 37 55 55 50 39 38 48 66 80 91 98 103 100 100 97 95 95 87 90 88
4 5 13 7 14 9 6 8 30 32 36 24 38 25 17 38 45 43 53 63 82 92 104 101 99 96 97 95 97 88 91 88
7 6 4 7 32 53 13 3 32 35 34 6 34 11 12 47 25 32 27 47 69 89 103 96 95 93 96 94 97 97 91 88
5 6 14 20 37 33 14 9 37 39 50 32 6 11 55 50 46 31 22 37 62 84 91 93 91 91 95 94 99 89 84 84
5 5 8 48 12 12 11 21 26 42 57 56 52 27 15 45 38 43 31 17 36 67 91 87 90 88 91 99 93 89 87 87
11 8 5 36 25 40 38 14 34 46 51 53 56 54 30 18 25 33 34 28 13 52 82 89 87 86 86 89 94 92 91 89
14 13 31 36 67 77 64 21 31 40 43 47 51 51 50 35 27 26 27 34 31 8 54 78 84 88 85 81 85 89 86 85
10 18 39 43 74 72 71 27 33 36 40 42 46 46 45 43 31 23 25 27 19 26 26 35 69 78 84 89 85 83 82 83
6 31 25 39 65 59 63 30 36 35 38 40 41 43 40 39 38 35 20 16 6 8 15 15 11 28 64 81 88 89 85 84
13 51 59 33 40 57 60 18 34 37 37 41 37 38 38 38 33 29 28 11 16 12 21 25 17 19 15 32 53 78 90 87
Wind_Direction_850mb
221 216 168 242 174 201 198 219 76 220 307 329 355 182 186 194 196 200 197 197 196 198 200 203 207 209 211 213 217 217 215 214
238 203 243 199 199 188 354 223 225 260 220 211 203 200 190 182 209 211 202 198 199 199 204 205 208 212 210 214 217 217 216 215
183 191 214 222 233 144 152 161 208 186 258 212 200 199 189 194 207 198 196 198 200 200 206 207 206 213 212 213 217 218 219 217
236 200 202 173 227 183 218 255 225 187 245 250 207 204 211 194 187 199 209 200 197 198 203 204 204 206 214 216 216 220 221 220
357 330 166 211 216 194 145 124 231 195 263 284 140 169 197 189 203 218 211 192 190 191 198 203 204 205 213 218 218 220 221 221
211 228 289 289 324 293 209 191 202 199 205 221 233 202 203 200 225 197 189 182 188 188 194 203 207 208 209 218 220 221 221 222
284 251 259 262 269 300 277 236 185 221 184 213 215 107 153 134 132 175 176 179 182 188 193 203 206 207 209 218 220 221 221 223
289 309 237 256 281 296 288 283 235 198 219 197 147 140 134 111 111 122 157 178 182 188 190 201 206 206 207 217 219 219 222 226
291 322 306 353 270 299 294 3 271 213 206 157 164 177 153 139 148 163 174 181 186 194 197 202 206 210 211 216 219 220 223 226
275 335 202 250 313 279 288 22 9 358 288 178 182 185 175 178 196 173 178 187 197 200 200 207 211 213 216 216 220 222 223 225
2 277 281 342 10 341 322 356 3 348 340 230 135 139 219 188 188 181 187 201 208 211 213 210 213 216 216 217 220 221 223 225
0 333 275 238 334 320 291 19 357 353 339 229 132 148 232 188 198 189 221 213 213 215 213 213 215 216 216 218 220 222 226 228
218 260 287 319 318 322 67 295 330 350 353 13 357 278 207 191 176 151 146 191 206 211 215 215 217 218 217 221 223 228 229 232
146 238 321 341 10 63 280 332 352 11 11 4 12 19 170 149 136 129 121 144 206 213 217 217 219 219 221 226 229 228 230 233
187 214 262 0 15 2 359 360 21 18 16 16 20 19 57 179 121 101 100 81 181 212 217 219 222 222 226 234 229 228 231 234
354 12 334 358 5 6 4 26 16 16 13 12 10 19 42 67 73 70 77 99 79 119 219 225 227 227 236 235 231 230 232 235
302 349 352 349 356 351 353 19 18 9 15 15 13 13 21 32 40 54 73 92 98 64 42 238 238 239 241 237 238 238 238 237
313 325 325 303 332 345 355 19 21 18 3 15 20 15 4 19 26 31 24 50 149 31 357 20 356 255 245 244 244 243 243 242
294 315 309 314 338 359 357 25 32 33 22 3 14 20 10 0 14 13 22 22 33 21 317 313 280 264 272 243 247 251 250 252